Flag for U.S.A. Weather past 2 weeks in Jackson, Mississippi, U.S.A.

Now
75 °F

Partly sunny.


Feels Like: 77 °F
Forecast: 61 / 80 °F
Wind: 10 mph from Southwest

Location: Hawkins Field

Current Time: Mar 31, 2015 at 1:12:15 PM

Latest Report: Mar 31, 2015 at 12:53 PM


Visibility: 10 mi

Pressure: 30.06 "Hg

Humidity: 58%

Dew point: 59 °F

Location of JacksonLocation

Historic Weather in Jackson — Graph

°F

Jackson temperature yesterday

Maximum temperature yesterday: 79 °F (at 4:53 PM)
Minimum temperature yesterday: 62 °F (at 12:53 AM)
Average temperature yesterday: 68 °F

Past Weeks' High & Low Weather Summary

 TemperatureHumidityPressure
High82 °F (Mar 16, 3:53 PM)97% (Mar 18, 10:53 PM)30.29 "Hg (Mar 18, 10:53 PM)
Low38 °F (Mar 28, 6:53 AM)29% (Mar 16, 3:53 PM)29.79 "Hg (Mar 26, 2:53 PM)
Average62 °F74%30.05 "Hg
* Reported Mar 16 11:53 AM — Mar 31 11:53 AM, Jackson, Weather by CustomWeather, © 2015

Note: Actual official high and low records may vary slightly from our data, if they occured in-between our weather recording intervals... More about our weather records

Advertising

Jackson weather history for previous 24 hours

 ConditionsComfort  
Time TempWeatherWind HumidityBarometerVisibility
11:53 AM
Tue, Mar 31
73 °FPartly sunny.10 mph62%30.08 "Hg10 mi
10:53 AM70 °FPartly sunny.14 mph71%30.10 "Hg10 mi
9:53 AM69 °FPassing clouds.12 mph73%30.09 "Hg10 mi
8:53 AM66 °FSunny.9 mph84%30.08 "Hg10 mi
7:53 AM63 °FSunny.7 mph87%30.07 "Hg10 mi
6:53 AM60 °FClear.No wind90%30.06 "Hg10 mi
5:53 AM61 °FClear.6 mph87%30.03 "Hg10 mi
4:53 AM63 °FClear.7 mph81%30.03 "Hg10 mi
3:53 AM62 °FClear.7 mph83%30.04 "Hg10 mi
2:53 AM63 °FClear.6 mph78%30.05 "Hg10 mi
1:53 AM64 °FClear.5 mph78%30.06 "Hg10 mi
12:53 AM61 °FClear.3 mph90%30.08 "Hg10 mi
11:53 PM
Mon, Mar 30
62 °FClear.No wind86%30.09 "Hg10 mi
10:53 PM64 °FClear.No wind84%30.10 "Hg10 mi
9:53 PM67 °FClear.No wind76%30.10 "Hg10 mi
8:53 PM70 °FPassing clouds.No wind68%30.10 "Hg10 mi
7:53 PM73 °FPartly sunny.No wind59%30.09 "Hg10 mi
6:53 PM74 °FScattered clouds.3 mph56%30.08 "Hg10 mi
5:53 PM76 °FBroken clouds.9 mph52%30.08 "Hg10 mi
4:53 PM79 °FScattered clouds.8 mph48%30.08 "Hg10 mi
3:53 PM77 °FBroken clouds.9 mph54%30.10 "Hg10 mi
2:53 PM75 °FScattered clouds.5 mph60%30.13 "Hg10 mi
1:53 PM74 °FBroken clouds.6 mph64%30.17 "Hg10 mi
Weather by CustomWeather, © 2015

See weather overviewHow to use our weather pages